Location: Gull Harbor
(47.1000°N, 122.9000°W)
Time: 17:54:47
(UTC-08:00)

BlueWalker 3 - Pass Details

Date: 22 December 2025
Orbit: 452 x 463 km, 53.2° (Epoch: 13 January)

Event Time Altitude Azimuth Distance (km) Brightness Sun altitude
Exits shadow 06:26:31 - 223° (SW) 2,102 4.9 -14.3°
Reaches altitude 10° 06:27:49 10° 220° (SW) 1,584 4.3 -14.1°
Maximum altitude 06:31:16 51° 144° (SE) 577 2.6 -13.6°
Drops below altitude 10° 06:34:47 10° 67° (ENE) 1,599 5.2 -13.0°
Sets 06:36:57 0° 63° (ENE) 2,478 6.1 -12.7°
